Regional Weather Roundup
Issued by NWS

Home | Current Version | Previous Version | Graphics & Text | Print | Product List | Glossary Off
Versions: 1 2 3 4 5 6 7 8 9 10 11 12 13 14 15 16 17 18 19 20 21 22 23 24 25 26 27 28 29 30 31 32 33 34 35 36 37 38 39 40 41 42 43 44 45 46 47 48 49 50

000
ASUS43 KDTX 200101
RWRMI
MICHIGAN HOURLY REGIONAL WEATHER ROUNDUP
NATIONAL WEATHER SERVICE DETROIT/PONTIAC MI
800 PM EST SUN NOV 19 2017

NOTE: "FAIR" INDICATES FEW OR NO CLOUDS BELOW 12,000 FEET WITH NO
SIGNIFICANT WEATHER AND/OR OBSTRUCTION TO VISIBILITY.

MIZ047>049-052>055-059>063-066>070-074>076-081>083-200200-
SOUTHEAST LOWER MICHIGAN

CITY           SKY/WX    TMP DP  RH WIND       PRES   REMARKS
ADRIAN         CLOUDY    30  20  66 NW10G18   30.00S WCI  21
ALMA           PTCLDY    28  19  69 W10       29.96S WCI  19
ANN ARBOR      PTCLDY    30  18  60 W17G24    29.97R WCI  18
BAD AXE        CLOUDY    28  16  58 W14G22    29.91R WCI  17
CARO           CLOUDY    29  19  64 W12G18    29.93R WCI  20
DETROIT CITY   CLOUDY   N/A N/A N/A W8        29.96R
DETROIT        CLOUDY    32  19  58 W13G21    29.97R WCI  22
FLINT          MOCLDY    29  18  63 W18       29.96R WCI  16
GROSSE ILE     CLOUDY    32  20  60 NW14G24   29.97R WCI  22
HILLSDALE      MOCLDY    30  21  69 W8        29.97F WCI  23
HOWELL         MOCLDY    29  21  70 W10G16    29.96R WCI  20

CITY           SKY/WX    TMP DP  RH WIND       PRES   REMARKS
JACKSON        PTCLDY    28  19  69 W9        29.98R WCI  19
LAMBERTVILLE   MOCLDY    33  20  59 W10G17    30.01R WCI  25
LANSING        PTCLDY    29  20  69 W9        29.98R WCI  20
LAPEER         CLOUDY    29  18  62 W10       29.93S WCI  20
MASON          CLOUDY    31  20  65 W7        29.97R WCI  24
MONROE         CLOUDY    33  20  58 W14G22    29.98S WCI  24
MT. CLEMENS    MOCLDY    30  19  62 W10       29.92R WCI  21
PONTIAC        MOCLDY    29  18  63 W17       29.93R WCI  17
PORT HOPE        N/A     31  17  56 W14G21    29.87R WCI  21
PORT HURON     CLOUDY    30  19  64 W8G16     29.93R WCI  23
TRI CITIES     CLOUDY    29  20  69 W17G24    29.95R WCI  17
MIDLAND        CLOUDY    29  18  63 W12       29.94S WCI  20
TROY           MOCLDY    33  19  55 W14       29.96S WCI  23
SAGINAW HB     CLOUDY    30  21  69 W15       29.94S WCI  19
$$
MIZ043>046-050>051-056>058-064>065-071>073-077>080-200200-
SOUTHWEST LOWER MICHIGAN

CITY           SKY/WX    TMP DP  RH WIND       PRES   REMARKS
BATTLE CREEK   PTCLDY    27  21  78 SW8       29.99S WCI  19
BENTON HARBOR  CLEAR     35  19  52 W14       30.04R WCI  26
BIG RAPIDS     CLOUDY    26  19  74 SW3       29.93F
COLDWATER      MOCLDY    30  22  72 W6        30.00S WCI  24
FREMONT        FAIR      28  21  75 SW3       29.96S
HOLLAND        PTCLDY    34  20  56 W10       30.00S WCI  26
GRAND RAPIDS   CLOUDY    29  23  78 W8        29.98R WCI  21
IONIA          FAIR      29  20  69 W5        29.96S WCI  24
KALAMAZOO      MOCLDY    29  20  69 SW6       30.01R WCI  23
LUDINGTON      CLOUDY    32  16  52 W9        29.95S WCI  24
MARSHALL       PTCLDY    26  21  79 W6        29.99R WCI  20
MOUNT PLEASANT CLEAR     28  18  65 W8        29.94S WCI  20
MUSKEGON       CLOUDY    34  19  54 W10G20    29.98F WCI  26
SOUTH HAVEN    PTCLDY    36  19  51 W10G17    30.02R WCI  28
$$
MIZ016>042-200200-
NORTHERN LOWER MICHIGAN

CITY           SKY/WX    TMP DP  RH WIND       PRES   REMARKS
ALPENA         FLURRIES  28  24  85 W5        29.86R WCI  23
BEAVER ISLAND  CLOUDY    28  17  63 W10       29.88S WCI  19
BELLAIRE       CLOUDY    29  21  72 SW5       29.90F WCI  24
CADILLAC       CLOUDY    24  18  78 W5        29.88S WCI  18
CHARLEVOIX     CLOUDY    30  19  62 W17       29.90F WCI  19
FRANKFORT      CLOUDY    32  18  55 W10G16    29.92S WCI  24
GAYLORD        CLOUDY    24  16  71 W14G23    29.83S WCI  12
GRAYLING       CLOUDY    25  16  69 W9        29.87S WCI  15
HARBOR SPRINGS CLOUDY    29  17  62 W13G18    29.86S WCI  18
MANISTEE       CLOUDY    31  20  63 W8        29.93F WCI  23
OSCODA         CLOUDY    28  18  65 W12G17    29.89R WCI  18
PELLSTON       CLOUDY    28  17  63 W10G20    29.86S WCI  19
ROGERS CITY    CLOUDY    29  20  69 W9        29.85S WCI  20
TRAVERSE CITY  CLOUDY    27  18  69 SW5       29.90F WCI  22
$$
MIZ007>008-015-200200-
EASTERN UPPER MICHIGAN

CITY           SKY/WX    TMP DP  RH WIND       PRES   REMARKS
KINROSS        FLURRIES  24  19  81 W13       29.81F WCI  12
MACKINAC ISLAN CLOUDY    29  17  61 W20G26    29.83S WCI  16
NEWBERRY       CLOUDY    23  15  72 W13G23    29.82S HAZE    WCI  11
S. S. MARIE    FLURRIES  26  21  81 SW13G23   29.78F WCI  15
MUNISING         N/A     23  15  71 SW9       29.86S WCI  13
$$
MIZ004>006-011>014-085-200200-
CENTRAL UPPER MICHIGAN

CITY           SKY/WX    TMP DP  RH WIND       PRES   REMARKS
MANISTIQUE     CLOUDY    23   8  52 W5        29.88S WCI  17
ESCANABA       CLOUDY    24  18  77 CALM      29.90S
MENOMINEE      CLOUDY    28  14  55 W7        29.92S WCI  21
SAWYER-GWINN   CLOUDY    21  14  73 SW6       29.84S WCI  14
$$
MIZ001>003-009>011-084-200200-
WESTERN UPPER MICHIGAN

CITY           SKY/WX    TMP DP  RH WIND       PRES   REMARKS
IRON MOUNTAIN  CLOUDY    24  12  60 W5        29.85S WCI  18
HOUGHTON       CLOUDY    23  15  71 W12       29.80S WCI  12
COPPER HARBOR    N/A     29  18  63 N15G26    29.81S WCI  18
IRONWOOD       CLOUDY   N/A N/A N/A CALM      29.86S
$$

ABBREVIATIONS USED IN REMARKS
   TC - TEMPERATURE IN CELSIUS
  WCI - WIND CHILL INDEX
   HX - HEAT INDEX
  VSB - VISIBILITY




USA.gov is the U.S. government's official web portal to all federal, state and local government web resources and services.